Hourly Data Report for February 04, 2017

All times are specified in Local Standard Time (LST). Add 1 hour to adjust for Daylight Saving Time where and when it is observed.

TORONTO CITY
ONTARIO

43°40'00.000" N
79°24'00.000" W
112.50 m
6158355
71508
XTO

Download Data

Hourly Data (February 2017)
Hourly Data Report for February 4, 2017
TIME Temp Definition
°C
Dew Point Definition
°C
Rel Hum Definition
%
Wind Dir Definition
10's deg

Wind Spd Definition
km/h
Visibility Definition
km
Stn Press Definition
kPa
Hmdx Definition


Wind Chill Definition


Weather Definition


00:00 -6.2 -11.8 64 LegendMM LegendMM   101.10     LegendNANA
01:00 -6.1 -12.0 63 LegendMM LegendMM   101.10     LegendNANA
02:00 -6.0 -12.0 62 LegendMM LegendMM   101.13     LegendNANA
03:00 -5.9 -12.5 59 LegendMM LegendMM   101.17     LegendNANA
04:00 -5.8 -13.1 56 LegendMM LegendMM   101.18     LegendNANA
05:00 -6.1 -12.0 63 LegendMM LegendMM   101.21     LegendNANA
06:00 -6.3 -12.9 59 LegendMM LegendMM   101.20     LegendNANA
07:00 -6.6 -11.8 67 LegendMM LegendMM   101.22     LegendNANA
08:00 -7.1 -11.4 71 LegendMM LegendMM   101.24     LegendNANA
09:00 -7.1 -11.6 70 LegendMM LegendMM   101.26     LegendNANA
10:00 -6.1 -11.8 64 LegendMM LegendMM   101.27     LegendNANA
11:00 -5.1 -11.9 59 LegendMM LegendMM   101.24     LegendNANA
12:00 -4.4 -11.5 57 LegendMM LegendMM   101.19     LegendNANA
13:00 -3.8 -11.8 54 LegendMM LegendMM   101.08     LegendNANA
14:00 -3.4 -11.4 54 LegendMM LegendMM   101.03     LegendNANA
15:00 -3.1 -10.7 56 LegendMM LegendMM   100.92     LegendNANA
16:00 -2.5 -11.1 52 LegendMM LegendMM   100.89     LegendNANA
17:00 -2.9 -11.4 52 LegendMM LegendMM   100.84     LegendNANA
18:00 -3.2 -11.7 52 LegendMM LegendMM   100.82     LegendNANA
19:00 -3.6 -10.7 58 LegendMM LegendMM   100.75     LegendNANA
20:00 -3.7 -9.6 64 LegendMM LegendMM   100.67     LegendNANA
21:00 -3.2 -9.3 63 LegendMM LegendMM   100.58     LegendNANA
22:00 -2.8 -9.0 63 LegendMM LegendMM   100.51     LegendNANA
23:00 -2.3 -8.8 61 LegendMM LegendMM   100.42     LegendNANA

Notes on Data Quality.

Legend

  • E = Estimated
  • M = Missing
  • NA = Not Available
Date modified: